Location: *
(47.7508°N, 5.7556°E)
Time: 18:40:23
(UTC+00:00)

Daily predictions for brighter satellites

Satellite Brightness Start Highest point End
(mag) Time Altitude Azimuth Time Altitude Azimuth Time Altitude Azimuth
STARLINK-1068 3.7 17:40:13 10° WSW 17:44:21 84° NNW 17:48:31 10° ENE
STARLINK-32 4.4 17:40:37 10° W 17:44:29 43° NNW 17:48:22 10° ENE
STARLINK-80 4.1 17:40:54 10° WNW 17:44:33 41° NNE 17:48:13 10° E
STARLINK-40 4.4 17:42:18 10° W 17:46:10 43° NNW 17:50:02 10° ENE
CZ-4 R/B 1.4 17:42:31 10° SSE 17:46:39 68° ENE 17:50:45 10° N
STARLINK-44 4.4 17:43:58 10° W 17:47:50 43° N 17:51:42 10° ENE
Lacrosse 4 Rocket 3.9 17:45:05 10° W 17:48:08 19° NW 17:51:14 10° N
STARLINK-37 4.4 17:45:47 10° W 17:49:38 42° N 17:53:29 10° ENE
NOSS 7 (D) 4.1 17:47:10 10° NW 17:50:02 59° NE 17:53:14 10° SE
Cosmos 1633 Rocket 3.3 17:46:05 10° SSW 17:50:25 77° W 17:54:47 10° N
YAOGAN 1 2.6 17:46:35 10° SSE 17:50:51 60° ENE 17:55:08 10° N
STARLINK-36 4.4 17:47:17 10° W 17:51:08 42° N 17:55:00 10° ENE
STARLINK-1067 4.4 17:47:23 10° SSW 17:51:11 36° SE 17:54:59 10° ENE
STARLINK-64 4.4 17:48:03 10° WNW 17:51:23 35° N 17:54:44 10° ENE
Cosmos 2263 4.3 17:46:16 10° SSW 17:52:03 81° ESE 17:57:49 10° NNE
STARLINK-33 4.3 17:49:46 10° WNW 17:52:45 31° N 17:55:44 10° ENE
STARLINK-68 4.4 17:49:12 10° W 17:53:02 41° N 17:56:53 10° ENE
Ariane Rocket 3.8 17:49:39 10° ESE 17:54:00 29° ENE 17:58:23 10° N
STARLINK-55 4.3 17:51:10 10° WNW 17:54:08 31° N 17:57:07 10° ENE
STARLINK-1060 3.8 17:50:11 10° WSW 17:54:19 75° NNW 17:58:29 10° ENE
STARLINK-63 4.4 17:50:45 10° W 17:54:35 41° N 17:58:25 10° ENE
STARLINK-66 4.3 17:52:04 10° WNW 17:55:02 31° N 17:58:01 10° ENE
STARLINK-28 4.3 17:52:47 10° WNW 17:55:46 31° N 17:58:44 10° ENE
STARLINK-1058 4.3 17:52:16 10° SSW 17:56:07 38° SE 17:59:59 10° ENE
STARLINK-35 4.4 17:52:18 10° W 17:56:08 41° N 17:59:59 10° ENE
NOSS 2-3 (C) 3.8 17:51:57 10° SW 17:56:19 87° NW 18:01:35 10° NE
STARLINK-42 4.3 17:53:38 10° WNW 17:56:33 30° N 17:59:30 10° ENE
USA 116 4.2 17:52:50 10° NNE 17:56:56 50° E 18:01:32 10° S
Cosmos 990 Rocket 4.3 17:52:27 10° NNW 17:57:24 44° ENE 18:02:19 10° SE
STARLINK-51 4.4 17:53:58 10° W 17:57:48 41° N 18:01:38 10° ENE
STARLINK-1029 4.0 17:55:37 10° W 17:58:35 36° NNW 18:01:35 10° ENE
STARLINK-1007 4.2 17:56:12 10° WNW 17:59:20 35° N 18:02:28 10° ENE
STARLINK-1030 3.8 17:55:12 10° WSW 17:59:21 71° NNW 18:03:29 10° ENE
STARLINK-30 4.4 17:55:39 10° W 17:59:29 40° N 18:03:18 10° ENE
Cosmos 1943 Rocket 3.0 17:54:33 10° SW 18:00:00 54° WNW 18:05:26 10° NNE
CSL-04 Debris 4.2 17:54:57 10° SSE 18:00:23 71° ENE 18:05:52 10° N
STARLINK-1043 4.2 17:57:10 10° SSW 18:01:04 41° SE 18:04:53 11° ENE
STARLINK-72 4.5 17:57:19 10° W 18:01:09 40° N 18:04:59 10° ENE
Cosmos 2297 Rocket 3.7 17:57:11 10° N 18:01:12 19° NE 18:05:00 11° E
Cosmos 1933 Rocket 3.6 17:57:08 10° S 18:01:25 57° E 18:05:44 10° NNE
SKYMED 2 3.7 17:57:42 10° NNE 18:02:04 82° WNW 18:06:25 10° SSW
STARLINK-50 4.5 17:58:59 10° WNW 18:02:49 40° N 18:06:38 10° ENE
STARLINK-1020 3.9 18:00:11 10° WSW 18:04:18 68° NNW 18:08:27 10° ENE
STARLINK-59 4.5 18:00:46 10° WNW 18:04:35 40° N 18:08:19 10° ENE
STARLINK-1065 4.1 18:01:54 10° SW 18:05:51 44° SE 18:09:29 12° ENE
STARLINK-56 4.5 18:02:19 10° WNW 18:06:09 40° N 18:09:50 11° ENE
STARLINK-73 4.5 18:03:59 10° WNW 18:07:48 39° N 18:11:25 11° ENE
Cosmos 1340 2.8 18:04:27 10° SSW 18:08:12 81° WNW 18:11:59 10° N
STARLINK-1010 4.2 18:05:39 10° WNW 18:08:40 33° N 18:11:28 11° ENE
NOAA 11 4.2 18:03:27 10° SSE 18:08:54 90° WSW 18:14:22 10° NNW
Cosmos 1346 Rocket 2.7 18:05:15 10° S 18:09:12 81° ESE 18:13:10 10° NNE
STARLINK-1052 3.9 18:05:11 10° WSW 18:09:18 64° NNW 18:13:16 11° ENE
STARLINK-38 4.5 18:05:41 10° WNW 18:09:30 39° N 18:13:02 12° ENE
STARLINK-1063 4.0 18:06:58 10° SW 18:10:57 48° SE 18:14:25 13° ENE
STARLINK-65 4.5 18:07:19 10° WNW 18:11:08 39° N 18:14:36 12° ENE
STARLINK-1047 4.0 18:07:29 10° WSW 18:11:38 62° NNW 18:15:32 11° ENE
Cosmos 1937 Rocket 3.9 18:07:08 10° NNW 18:12:10 44° ENE 18:17:07 10° SE
Cosmos 1464 Rocket 4.3 18:06:12 10° SSE 18:12:14 48° E 18:18:19 10° NNE
STARLINK-53 4.5 18:09:06 10° WNW 18:12:54 39° N 18:16:17 13° ENE
Genesis I 4.3 18:11:24 10° NNW 18:14:47 27° NE 18:17:06 16° E
STARLINK-1064 3.9 18:11:54 10° SW 18:15:55 52° SE 18:19:11 15° ENE
ADEOS Rocket 3.6 18:08:09 10° NNE 18:15:55 62° E 18:23:23 10° S
USA 238 DEB 4.4 18:09:31 10° NW 18:16:07 39° NNE 18:21:52 14° E
USA 238 4.5 18:09:37 10° NW 18:16:12 39° NNE 18:21:56 14° E
STARLINK-1033 4.0 18:15:11 10° W 18:19:16 59° NNW 18:22:50 13° ENE
Cosmos 2227 Rocket 3.5 18:16:09 10° N 18:20:32 22° NE 18:23:26 16° E
Meteor 1-20 Rocket 4.1 18:15:22 10° S 18:20:47 66° E 18:26:20 10° NNE
STARLINK-1041 3.8 18:16:50 10° SW 18:20:53 56° SE 18:23:59 16° ENE
Cosmos 1656 Rocket 3.7 18:18:51 10° SSW 18:24:24 86° WNW 18:30:04 10° NNE
Cosmos 2221 Rocket 4.5 18:21:28 10° N 18:25:23 28° ENE 18:28:33 14° SE
STARLINK-1038 3.7 18:21:45 10° SW 18:25:50 60° SE 18:28:44 18° ENE
STARLINK-1024 4.1 18:25:13 10° W 18:29:17 54° NNW 18:32:25 16° ENE
STARLINK-1046 3.6 18:26:43 10° SW 18:30:49 65° SSE 18:33:33 20° ENE
H-2A R/B 2.5 18:25:55 10° SE 18:31:00 43° ENE 18:36:08 10° N
STARLINK 1040 4.2 18:28:59 10° WNW 18:31:25 26° N 18:32:39 19° NE
STARLINK-22 4.2 18:31:42 10° WNW 18:34:43 32° N 18:36:16 21° NE
Cosmos 2034 Rocket 4.1 18:28:53 10° SSE 18:34:46 49° E 18:40:40 10° NNE
STARLINK-1039 3.6 18:31:42 10° SW 18:35:49 70° SSE 18:38:22 22° ENE
STARLINK-41 4.2 18:33:12 10° WNW 18:36:14 32° N 18:37:41 22° NE
STARLINK-1016 4.3 18:33:54 10° WNW 18:37:00 32° N 18:38:43 20° NE
Cosmos 220 Rocket 4.1 18:33:28 10° S 18:37:39 52° ESE 18:41:48 10° NNE
Meteor 1-18 Rocket 4.3 18:32:35 10° N 18:38:32 83° E 18:44:20 10° SSE
STARLINK-1008 4.3 18:35:34 10° WNW 18:38:41 32° N 18:40:20 21° NE
STARLINK-1032 4.3 18:35:15 10° W 18:39:17 50° NNW 18:41:59 19° NE
COSMOS 2487 3.8 18:36:10 10° NW 18:39:27 41° WSW 18:42:41 10° S
STARLINK-75 4.1 18:37:33 10° WNW 18:40:41 34° N 18:41:58 25° NE
STARLINK-1045 3.5 18:36:39 10° SW 18:40:47 74° SSE 18:43:08 25° ENE
STARLINK-58 4.3 18:38:28 10° WNW 18:41:46 34° N 18:43:17 23° NE
STARLINK-24 4.5 18:38:00 10° WNW 18:41:47 38° N 18:43:52 22° NE
STARLINK-1025 4.3 18:39:45 10° WNW 18:42:52 32° N 18:44:21 22° NE
STARLINK-62 4.3 18:40:11 10° WNW 18:43:29 34° N 18:44:55 24° NE
STARLINK-1011 4.3 18:40:14 10° W 18:44:16 48° NNW 18:46:45 21° NE
STARLINK-43 3.5 18:40:41 10° WNW 18:44:22 66° SSW 18:46:22 25° SE
STARLINK-1017 4.3 18:41:51 10° WNW 18:44:59 32° N 18:46:21 23° NE
STARLINK-34 4.3 18:41:49 10° WNW 18:45:07 35° N 18:46:29 25° NE
STARLINK-1050 3.5 18:41:39 10° WSW 18:45:47 81° SSE 18:47:59 27° ENE
Timation 2 Rocket 4.2 18:38:55 10° NNW 18:45:51 88° WSW 18:52:44 10° SSE
HJ-1C 3.4 18:42:42 10° S 18:45:59 77° WSW 18:49:18 10° NNW
STARLINK-1035 4.4 18:41:55 10° W 18:46:02 47° NNW 18:48:33 21° NE
Lacrosse 5 rocket 2.5 18:42:00 10° NW 18:46:14 36° NNE 18:48:11 25° ENE
STARLINK-1031 4.4 18:42:18 10° W 18:46:17 45° NNW 18:48:37 22° NE
Okean 1 3.3 18:42:37 10° N 18:46:39 86° W 18:50:37 10° S
Cosmos 468 Rocket 3.9 18:42:05 10° SSW 18:47:23 82° ESE 18:52:44 10° NNE
Okean 1-7 3.2 18:43:22 10° NNW 18:47:42 77° W 18:52:03 10° S
STARLINK-1036 4.3 18:45:15 10° W 18:49:16 47° NNW 18:51:32 23° NE
Cosmos 2219 3.6 18:43:46 10° NNW 18:49:18 45° NE 18:52:15 25° ESE
STARLINK-1055 3.5 18:46:37 10° WSW 18:50:45 86° SSE 18:52:45 30° ENE
STARLINK-1048 4.3 18:48:14 10° WNW 18:51:22 32° N 18:52:29 26° NE
Cosmos 192 4.3 18:46:58 10° SSW 18:51:53 89° NW 18:56:49 10° NNE
Cosmos 405 3.8 18:49:03 10° NNW 18:52:31 52° W 18:55:58 10° S
STARLINK-81 4.5 18:48:45 10° WNW 18:52:33 38° N 18:54:10 26° NE
Lacrosse 5 1.9 18:47:54 10° SW 18:52:54 59° SE 18:55:38 26° ENE
Cosmos 1092 Rocket 4.2 18:46:46 10° N 18:52:55 48° ENE 18:58:47 11° SSE
STARLINK-1049 4.3 18:50:22 10° WNW 18:53:31 32° N 18:54:32 27° NE
MOS 1 4.2 18:48:01 10° SSE 18:53:38 68° ENE 18:59:15 10° N
STARLINK-1044 4.4 18:50:17 10° W 18:54:17 45° NNW 18:56:19 25° NE
STARLINK-54 4.5 18:50:38 10° WNW 18:54:25 38° N 18:55:56 27° NE
STARLINK-1051 4.3 18:52:33 10° WNW 18:55:42 32° N 18:56:37 28° NE
STARLINK-1022 3.5 18:51:35 10° WSW 18:55:44 89° NNW 18:57:31 33° ENE
STARLINK-77 4.5 18:52:04 10° WNW 18:55:52 38° N 18:57:20 28° NE
STARLINK-1027 4.5 18:52:40 10° W 18:56:46 44° N 18:58:47 25° NE
Meteor 2-4 Rocket 3.8 18:51:05 10° N 18:56:59 62° ENE 19:02:51 10° SSE
STARLINK-1028 4.3 18:54:13 10° WNW 18:57:23 33° N 18:58:14 28° NNE
STARLINK-25 4.5 18:53:44 10° WNW 18:57:32 38° N 18:58:55 29° NE
Meteor 1-14 Rocket 4.1 18:52:23 10° S 18:57:54 86° E 19:03:32 10° NNE
Cosmos 2263 Rocket 4.4 18:57:49 10° NNE 18:58:20 10° NNE 18:58:52 10° NNE
STARLINK-71 4.4 18:55:38 10° WNW 18:59:26 39° N 19:00:42 30° NE
STARLINK-1021 4.3 18:56:26 10° WNW 18:59:35 33° N 19:00:21 29° NNE
USA 234 4.1 18:55:21 18° ENE 18:59:40 40° N 19:05:39 10° WNW
Gbstr 26 Del rocket 3.0 18:55:49 10° WSW 18:59:56 87° NNW 19:02:07 32° ENE
STARLINK-1042 3.6 18:56:35 10° WSW 19:00:44 85° NNW 19:02:19 37° ENE
STARLINK-79 4.5 18:57:04 10° WNW 19:00:52 38° N 19:02:07 30° NE
Cosmos 1814 Rocket 4.1 18:56:27 10° S 19:01:18 45° ESE 19:06:13 10° NNE
STARLINK-1019 4.2 18:58:38 10° WNW 19:01:49 33° N 19:02:28 30° NNE
Cosmos 2369 Rocket 4.2 18:57:08 10° WSW 19:01:59 28° NW 19:06:51 10° NNE
STARLINK-78 4.4 18:58:45 10° WNW 19:02:33 39° N 19:03:43 31° NE
STARLINK-1012 4.2 19:00:52 10° WNW 19:04:03 33° N 19:04:37 31° NNE
STARLINK-1037 4.4 19:00:13 10° W 19:04:12 43° N 19:05:48 29° NE
STARLINK-57 4.4 19:00:31 10° WNW 19:04:19 39° N 19:05:23 32° NE
Cosmos 1602 4.1 19:00:43 10° SSW 19:04:34 66° W 19:08:25 10° N
Cosmos 44 Rocket 3.9 19:00:01 10° NW 19:04:38 54° WSW 19:08:48 13° SSE
USA 186 2.4 19:05:54 37° N 19:05:54 37° N 19:07:50 10° N
Cosmos 1898 Rocket 4.2 19:00:05 10° NNW 19:05:07 53° WSW 19:10:09 10° S
STARLINK-1056 3.6 19:01:34 10° WSW 19:05:43 80° NNW 19:07:06 41° NE
STARLINK-49 4.4 19:02:03 10° WNW 19:05:52 39° N 19:06:53 33° NE
SJ 16-02 2.3 19:02:02 10° NNW 19:06:18 48° WSW 19:10:31 10° S
NOSS 3-2 (A) 4.1 18:59:22 10° NW 19:06:38 60° NE 19:10:56 29° ESE
STARLINK-48 3.4 19:03:05 10° WNW 19:06:59 68° NNE 19:07:38 55° ENE
Cosmos 841 Rocket 3.4 19:02:18 10° S 19:07:19 57° ESE 19:12:25 10° NNE
STARLINK-27 4.4 19:03:42 10° WNW 19:07:31 39° N 19:08:28 34° NE
Cosmos 1763 Rocket 3.5 19:02:30 10° SSW 19:07:45 83° WNW 19:13:05 10° NNE
STARLINK-1026 4.2 19:05:19 10° WNW 19:08:30 33° N 19:08:53 32° NNE
STARLINK-1023 4.2 19:05:39 10° WNW 19:08:40 32° N 19:08:53 32° NNE
STARLINK-74 4.4 19:05:23 10° WNW 19:09:12 39° N 19:10:04 34° NE
Meteor 1-19 Rocket 4.5 19:03:30 10° NNW 19:09:16 72° W 19:14:50 10° S
STARLINK-1059 4.5 19:05:19 10° W 19:09:17 42° N 19:10:40 31° NE
ARGOS 3.1 19:04:37 10° SSE 19:09:59 75° ENE 19:15:26 10° N
Cosmos 2298 Rocket 4.1 19:04:58 10° NNW 19:10:15 56° ENE 19:12:03 38° ESE
Resurs 01 Rocket 2.9 19:11:23 25° NE 19:11:23 25° NE 19:14:07 10° N
NOSS 3-2 (C) 4.3 19:03:20 10° NW 19:10:22 49° NE 19:13:51 31° E
STARLINK-1054 3.6 19:06:32 10° WSW 19:10:41 76° NNW 19:11:52 45° NE
STARLINK-1013 4.2 19:07:34 10° WNW 19:10:46 34° N 19:11:03 33° NNE
STARLINK-39 4.3 19:07:02 10° WNW 19:10:51 39° N 19:11:38 35° NE
STARLINK-26 3.1 19:08:45 10° WNW 19:12:13 68° NNE 19:12:14 68° NNE
STARLINK-31 4.3 19:08:44 10° WNW 19:12:33 40° N 19:13:16 36° NE
STARLINK-61 3.9 19:09:09 10° WNW 19:12:56 46° NNE 19:13:23 44° NE
STARLINK-1009 4.2 19:09:48 10° WNW 19:13:01 34° N 19:13:12 34° NNE
Cosmos 1869 Rocket 3.9 19:09:53 10° SSW 19:14:15 66° WNW 19:18:37 10° N
STARLINK-69 4.3 19:10:35 10° WNW 19:14:25 41° N 19:15:02 38° NNE
Cosmos 2208 Rocket 3.9 19:09:03 10° SSW 19:14:26 72° ESE 19:19:46 10° NNE
ARGOS Delta rocket 3.5 19:13:10 38° SE 19:14:43 67° ENE 19:19:12 10° N
Meteor 1-11 Rocket 4.0 19:10:01 10° SSE 19:15:12 42° E 19:20:23 10° NNE
STARLINK-1015 4.2 19:12:05 10° WNW 19:15:17 34° N 19:15:23 34° N
SPOT 3 Rocket 3.5 19:13:10 33° SE 19:15:22 61° ENE 19:20:31 10° N
STARLINK-1062 3.7 19:11:31 10° WSW 19:15:39 72° NNW 19:16:39 49° NE
STARLINK-21 4.3 19:12:04 10° WNW 19:15:54 40° N 19:16:28 38° NNE
STARLINK-45 4.2 19:13:57 10° WNW 19:17:48 41° N 19:18:15 40° NNE
CENTAUR R/B 3.5 19:11:50 10° NW 19:19:19 48° NE 19:22:39 33° E
STARLINK-70 4.2 19:15:31 10° WNW 19:19:21 41° N 19:19:45 40° NNE
STARLINK-1014 4.3 19:17:13 10° WNW 19:20:29 34° N 19:20:29 34° N
STARLINK-1053 3.8 19:16:32 10° WSW 19:20:39 69° NNW 19:21:26 53° NE
STARLINK-76 4.2 19:17:02 10° WNW 19:20:53 41° N 19:21:13 40° NNE
Cosmos 389 Rocket 4.2 19:18:12 10° N 19:19:48 23° NNE 19:19:48 23° NNE
STARLINK-23 4.2 19:18:42 10° WNW 19:22:33 41° N 19:22:49 41° NNE
STARLINK-80 3.4 19:19:15 10° WNW 19:23:04 71° SSW 19:23:11 70° SSW
STARLINK-32 4.2 19:20:20 10° WNW 19:24:11 42° N 19:24:23 41° NNE
STARLINK-1068 4.5 19:20:22 10° WNW 19:24:18 40° N 19:25:01 37° NNE
CZ-2C R/B 3.3 19:19:16 10° SSE 19:25:05 85° WSW 19:30:45 10° NNW
STARLINK-1061 3.8 19:21:30 10° WSW 19:25:38 65° NNW 19:26:12 57° NNE
STARLINK-40 4.2 19:22:00 10° WNW 19:25:52 42° N 19:25:59 42° NNE
Cosmos 2150 Rocket 4.0 19:21:36 10° NNW 19:27:02 70° ENE 19:28:22 50° SE
STARLINK-44 4.2 19:23:40 10° WNW 19:27:32 42° N 19:27:35 42° NNE
Meteor 2-9 4.4 19:22:45 10° S 19:28:07 81° E 19:33:32 10° NNE
FREGAT/IRIS 4.3 19:29:02 30° WNW 19:29:02 30° WNW 19:30:53 10° NNW
Cosmos 1570 Rocket 4.1 19:23:32 10° SSW 19:28:46 76° WNW 19:34:05 10° NNE
STARLINK-37 4.2 19:25:27 10° WNW 19:29:16 43° N 19:29:16 43° N
STARLINK-64 4.1 19:25:53 10° WNW 19:28:51 42° NNW 19:28:51 42° NNW
STARLINK-33 4.2 19:26:21 10° WNW 19:28:41 37° NNW 19:28:41 37° NNW
SJ-6B 2.8 19:29:20 62° SSW 19:29:48 71° WSW 19:33:37 10° NNW
STARLINK-1067 3.8 19:26:31 10° WSW 19:30:38 62° NNW 19:31:00 59° N
STARLINK-36 4.3 19:26:58 10° WNW 19:30:44 43° N 19:30:44 43° N
STARLINK-55 4.3 19:27:43 10° WNW 19:30:00 37° NNW 19:30:00 37° NNW
STARLINK-66 4.3 19:28:37 10° WNW 19:30:52 36° NW 19:30:52 36° NW
Cosmos 1125 Rocket 3.8 19:27:02 10° NNW 19:32:01 47° NE 19:32:01 47° NE
Okean 3 3.6 19:28:06 10° NNW 19:32:19 72° W 19:33:28 45° SSW
STARLINK-28 4.3 19:29:18 10° WNW 19:31:31 37° NW 19:31:31 37° NW
STARLINK-68 4.2 19:28:51 10° WNW 19:32:31 44° N 19:32:31 44° N
Ariane Rocket 4.1 19:27:57 10° S 19:32:47 43° W 19:37:40 10° NNW
STARLINK-42 4.5 19:30:04 10° WNW 19:32:09 33° NW 19:32:09 33° NW
Cosmos 540 Rocket 3.3 19:28:45 10° SSW 19:33:52 84° ESE 19:39:03 10° NNE
ATLAS 3B R/B 3.4 19:28:03 10° NNW 19:34:11 36° NNE 19:35:31 33° ENE
STARLINK-63 4.3 19:30:24 10° WNW 19:34:01 44° N 19:34:01 44° N
STARLINK-1058 3.9 19:31:30 10° W 19:35:37 59° NNW 19:35:46 59° N
STARLINK-35 4.3 19:31:57 10° WNW 19:35:30 43° N 19:35:30 43° N
STARLINK-51 4.4 19:33:37 10° WNW 19:37:06 43° N 19:37:06 43° N
Cosmos 1627 Rocket 4.3 19:32:18 10° N 19:38:31 78° E 19:41:00 38° SSE
STARLINK-30 4.4 19:35:16 10° WNW 19:38:42 43° N 19:38:42 43° N
STARLINK-1043 4.0 19:36:31 10° W 19:40:33 57° NNW 19:40:33 57° NNW
STARLINK-72 4.4 19:36:57 10° WNW 19:40:18 42° NNW 19:40:18 42° NNW
Meteor 1-13 Rocket 4.2 19:36:04 10° NNW 19:41:58 85° W 19:44:37 34° S
STARLINK-50 4.5 19:38:36 10° WNW 19:41:53 42° NNW 19:41:53 42° NNW
SL-08 RB Rocket 3.7 19:42:32 61° SSW 19:43:12 74° WSW 19:47:41 10° NNW
STARLINK-59 4.5 19:40:21 10° WNW 19:43:34 42° NNW 19:43:34 42° NNW
APEX 4.2 19:39:42 10° SSW 19:44:49 79° WNW 19:51:15 10° NNE
STARLINK-1065 4.2 19:41:20 10° W 19:45:09 54° NW 19:45:09 54° NW
Cosmos 2297 Rocket 2.0 19:40:27 10° NNW 19:46:10 83° ENE 19:46:50 70° SE
CZ-2C R/B 3.7 19:42:35 10° NNE 19:47:16 85° WNW 19:52:00 10° SSW
STARLINK-1063 4.4 19:46:30 10° W 19:50:05 49° NW 19:50:05 49° NW
Genesis I 4.5 19:48:51 10° NW 19:52:02 38° WSW 19:52:02 38° WSW
Cosmos 2026 Rocket 3.9 19:50:16 10° N 19:56:28 84° W 19:58:21 48° S
ATLAS 2AS CENTAUR R/B 4.1 19:50:21 10° S 19:53:45 26° SSE 19:53:45 26° SSE
Meteor 1-5 Rocket 4.4 19:53:38 10° SSW 19:59:06 69° WNW 20:04:50 10° N
Cosmos 2227 Rocket 2.1 19:59:36 10° NNW 20:05:17 81° WSW 20:05:17 81° WSW
USA 238 DEB 3.9 20:00:29 10° NW 20:07:39 73° SW 20:09:20 55° S
Meteor 1-23 Rocket 4.2 20:01:59 10° N 20:07:09 74° N 20:07:09 74° N
USA 238 3.9 20:00:35 10° NW 20:07:45 73° SW 20:09:24 55° S
H-2A R/B 3.8 20:05:45 10° SSW 20:10:31 31° W 20:15:22 10° NNW
Cosmos 2082 4.0 20:05:43 10° NNW 20:10:31 59° N 20:10:31 59° N
Lacrosse 5 rocket 3.1 20:21:11 10° NW 20:23:51 34° WNW 20:23:51 34° WNW
Cosmos 1655 Rocket 4.3 20:22:19 10° N 20:27:24 58° N 20:27:24 58° N
Cosmos 2219 4.5 20:28:11 10° NW 20:33:20 34° WSW 20:34:13 33° SW
Lacrosse 5 3.2 20:31:13 10° W 20:34:52 37° WNW 20:34:52 37° WNW
CZ-2C R/B 4.4 20:36:23 10° N 20:38:39 25° N 20:38:39 25° N
USA 234 3.6 20:42:41 55° N 20:42:41 55° N 20:48:25 10° NW
Cosmos 2263 Rocket 4.0 20:38:59 10° NNW 20:41:27 23° N 20:41:27 23° N
Resurs 01 Rocket 4.0 20:48:57 21° NW 20:48:57 21° NW 20:50:47 10° NNW
NOSS 3-2 (C) 4.4 20:54:15 10° NW 21:01:19 58° WSW 21:01:19 58° WSW
CENTAUR R/B 3.4 21:02:34 10° NW 21:09:51 62° W 21:09:51 62° W
ATLAS 3B R/B 3.7 21:18:40 10° NW 21:22:47 40° NW 21:22:47 40° NW
